Location: Amherst
(42.5000°N, 72.5000°W)
Time: 05:34:18
(UTC-04:00)

ISS - Pass Details

Date: 24 May 2018
Orbit: 402 x 407 km, 51.6° (Epoch: 27 May)

Event Time Altitude Azimuth Distance (km) Brightness Sun altitude
Rises 23:03:33 0° 290° (WNW) 2,319 0.7 -22.2°
Reaches altitude 10° 23:06:09 10° 312° (NW) 1,459 -0.1 -22.4°
Maximum altitude 23:08:23 17° 355° (N) 1,118 -0.8 -22.6°
Drops below altitude 10° 23:10:36 10° 38° (NE) 1,459 -0.7 -22.8°
Sets 23:13:13 0° 60° (ENE) 2,318 0.1 -23.0°
